{"data":{"norad_id":55582,"intl_designator":"2023-020P","name":"STARLINK-5741","alt_names":[],"object_type":"PAYLOAD","status":"ACTIVE","operator":null,"country":"US","launch_date":"2023-02-12","launch_site_code":"AFETR","launch_vehicle":null,"mission":null,"orbit_class":"UNKNOWN","rcs_meters":null,"size_class":null,"mass_kg":null,"dimensions":null,"purposes":["comms"],"wikipedia_slug":null,"has_3d_model":false,"image_url":null,"decayed_at":null,"tle_current":{"epoch":"2026-05-25T02:06:47.367936Z","epoch_age_seconds":57718,"freshness":"FRESH","line1":"1 55582U 23020P   26145.08804824 -.00000215  00000+0  17260-5 0  9993","line2":"2 55582  43.0034 282.7611 0001245 267.9406  92.1303 15.27577156180726","mean_motion":15.27577156,"eccentricity":0.0001245,"inclination_deg":43.0034,"raan_deg":282.7611,"arg_perigee_deg":267.9406,"mean_anomaly_deg":92.1303,"bstar":1.726e-6,"rev_number":18072,"period_min":94.266924216822,"perigee_km":482.20339328279,"apogee_km":483.91183074118,"semimajor_km":6861.194612012,"source":"CELESTRAK","updated_at":"2026-05-25T13:38:17.836968Z"}}}